Grinnell, IA

2:21 AM CDT on March 26, 2017 (GMT -0500)
Grinnell Regional

Weather History for KGGI - April, 2013

Change the Weather History Date:

Monday, April 22, 2013

  Actual Average (KTNU) Record (KTNU)
Temperature  
Mean Temperature 54 °F -  
Max Temperature 66 °F 63 °F 96 °F (1980)
Min Temperature 43 °F 41 °F 27 °F (1986)
Degree Days  
Heating Degree Days 10    
Growing Degree Days 4 (Base 50)    
Moisture  
Dew Point 44 °F    
Average Humidity 70    
Maximum Humidity 95    
Minimum Humidity 43    
Precipitation  
Precipitation 0.07 in - - ()
Sea Level Pressure  
Sea Level Pressure 30.07 in    
Wind  
Wind Speed 11 mph (South)    
Max Wind Speed 24 mph    
Max Gust Speed 30 mph    
Visibility 10 miles    
Events Rain    
Averages and records for this station are not official NWS values.
T = Trace of Precipitation, MM = Missing Value Source: NWS Daily Summary

Daily Weather History Graph

Daily Weather History Graph

Search for Another Location

Airport or City:

Trip Planner

Search our weather history database for the weather conditions in past years. The results will help you decide how hot, cold, wet, or windy it might be!

Date:

Astronomy

Apr. 22, 2013 Rise Set
Actual Time 6:19 AM CDT 7:59 PM CDT
Civil Twilight 5:50 AM CDT 8:29 PM CDT
Nautical Twilight 5:14 AM CDT 9:04 PM CDT
Astronomical Twilight 4:36 AM CDT 9:43 PM CDT
Moon 4:46 PM CDT (4/22) 4:17 AM CDT (4/22)
Length of Visible Light 14h 38m
Length of Day
13h 39m
Waxing Gibbous, 88% of the Moon is Illuminated
Apr 22
Waxing Gibbous
Apr 25
Full
May 2
Last Quarter
May 9
New
May 17
First Quarter

Hourly Weather History & Observations

Time (CDT) Temp. Windchill Dew Point Humidity Pressure Visibility Wind Dir Wind Speed Gust Speed Precip Events Conditions
12:15 AM 50.9 °F - 43.0 °F 74% 30.16 in 10.0 mi SSE 16.1 mph 19.6 mph N/A Rain Light Rain
12:35 AM 50.9 °F - 42.8 °F 74% 30.16 in 10.0 mi SSE 12.7 mph - N/A   Overcast
12:55 AM 50.9 °F - 42.6 °F 73% 30.15 in 10.0 mi SSE 16.1 mph - N/A   Overcast
1:15 AM 51.1 °F - 42.3 °F 72% 30.15 in 10.0 mi SSE 13.8 mph - N/A   Overcast
1:35 AM 50.5 °F - 43.2 °F 76% 30.18 in 10.0 mi WSW 4.6 mph - N/A   Overcast
1:55 AM 50.9 °F - 43.0 °F 74% 30.18 in 10.0 mi WSW 5.8 mph - N/A Rain Light Rain
2:15 AM 50.5 °F - 43.0 °F 75% 30.18 in 10.0 mi SW 5.8 mph - N/A   Light Drizzle
2:35 AM 50.2 °F - 43.0 °F 76% 30.17 in 10.0 mi South 4.6 mph - N/A   Drizzle
2:55 AM 49.1 °F - 43.3 °F 81% 30.16 in 10.0 mi SE 4.6 mph - N/A   Overcast
3:15 AM 48.7 °F - 43.7 °F 83% 30.15 in 10.0 mi SE 6.9 mph - N/A   Mostly Cloudy
3:35 AM 48.2 °F - 43.7 °F 84% 30.15 in 10.0 mi SE 8.1 mph - N/A   Mostly Cloudy
3:55 AM 48.4 °F - 43.2 °F 82% 30.14 in 10.0 mi SE 6.9 mph - N/A   Scattered Clouds
4:15 AM 48.0 °F - 42.8 °F 82% 30.14 in 10.0 mi SSE 5.8 mph - N/A   Clear
4:35 AM 47.7 °F - 42.4 °F 82% 30.14 in 10.0 mi SE 5.8 mph - N/A   Scattered Clouds
4:55 AM 48.4 °F - 42.1 °F 79% 30.13 in 10.0 mi SSE 9.2 mph - N/A   Scattered Clouds
5:15 AM 48.6 °F - 42.4 °F 79% 30.13 in 10.0 mi SSE 9.2 mph - N/A   Mostly Cloudy
5:35 AM 48.6 °F - 42.3 °F 79% 30.13 in 10.0 mi SE 9.2 mph - N/A   Overcast
5:55 AM 48.7 °F - 42.1 °F 78% 30.13 in 10.0 mi SE 10.4 mph - N/A   Overcast
6:15 AM 49.3 °F - 41.9 °F 76% 30.12 in 10.0 mi SE 10.4 mph - N/A   Overcast
6:35 AM 49.1 °F - 41.9 °F 76% 30.13 in 10.0 mi SSE 10.4 mph - N/A   Overcast
6:55 AM 48.4 °F - 41.9 °F 78% 30.12 in 10.0 mi SE 12.7 mph - N/A   Overcast
7:15 AM 48.4 °F - 41.9 °F 78% 30.12 in 10.0 mi SSE 11.5 mph - N/A   Mostly Cloudy
7:35 AM 48.2 °F - 42.1 °F 79% 30.13 in 10.0 mi SSE 12.7 mph - N/A   Overcast
7:55 AM 48.4 °F - 42.1 °F 79% 30.12 in 10.0 mi SSE 11.5 mph - N/A   Overcast
8:15 AM 49.5 °F - 42.1 °F 76% 30.12 in 10.0 mi SSE 11.5 mph - N/A   Overcast
8:35 AM 50.7 °F - 42.8 °F 74% 30.11 in 10.0 mi SSE 13.8 mph - N/A   Mostly Cloudy
8:55 AM 51.8 °F - 42.4 °F 70% 30.11 in 10.0 mi SSE 12.7 mph - N/A   Mostly Cloudy
9:15 AM 51.8 °F - 42.1 °F 69% 30.11 in 10.0 mi SSE 11.5 mph - N/A   Overcast
9:35 AM 53.4 °F - 42.8 °F 67% 30.11 in 10.0 mi South 11.5 mph - N/A   Mostly Cloudy
9:55 AM 53.8 °F - 42.1 °F 65% 30.11 in 10.0 mi South 12.7 mph - N/A   Mostly Cloudy
10:15 AM 55.8 °F - 42.8 °F 62% 30.11 in 10.0 mi South 17.3 mph - N/A   Mostly Cloudy
10:35 AM 55.6 °F - 41.5 °F 59% 30.11 in 10.0 mi South 15.0 mph - N/A   Overcast
10:55 AM 55.0 °F - 42.1 °F 62% 30.11 in 10.0 mi South 12.7 mph - N/A   Overcast
11:15 AM 55.2 °F - 41.5 °F 60% 30.11 in 10.0 mi South 8.1 mph - N/A   Overcast
11:35 AM 57.2 °F - 42.3 °F 57% 30.10 in 10.0 mi South 10.4 mph - N/A   Overcast
11:55 AM 58.8 °F - 42.8 °F 55% 30.09 in 10.0 mi South 9.2 mph - N/A   Mostly Cloudy
12:15 PM 60.1 °F - 42.4 °F 52% 30.09 in 10.0 mi South 11.5 mph 16.1 mph N/A   Scattered Clouds
12:35 PM 62.2 °F - 42.6 °F 49% 30.07 in 10.0 mi South 12.7 mph 16.1 mph N/A   Clear
12:55 PM 62.1 °F - 43.3 °F 50% 30.06 in 10.0 mi SSE 11.5 mph 20.7 mph N/A   Mostly Cloudy
1:15 PM 61.7 °F - 43.2 °F 51% 30.05 in 10.0 mi South 13.8 mph - N/A   Mostly Cloudy
1:35 PM 62.1 °F - 43.2 °F 50% 30.04 in 10.0 mi SSE 11.5 mph 17.3 mph N/A   Scattered Clouds
1:55 PM 62.4 °F - 44.8 °F 52% 30.04 in 10.0 mi SE 12.7 mph - N/A   Mostly Cloudy
2:15 PM 63.5 °F - 44.6 °F 50% 30.02 in 10.0 mi SE 12.7 mph 16.1 mph N/A   Mostly Cloudy
2:35 PM 64.6 °F - 44.6 °F 48% 30.01 in 10.0 mi ESE 12.7 mph - N/A   Scattered Clouds
2:55 PM 65.3 °F - 44.6 °F 47% 30.00 in 10.0 mi SE 12.7 mph - N/A   Scattered Clouds
3:15 PM 65.5 °F - 42.3 °F 43% 29.99 in 10.0 mi SSE 16.1 mph 21.9 mph N/A   Mostly Cloudy
3:35 PM 64.4 °F - 43.7 °F 47% 29.98 in 10.0 mi SE 16.1 mph - N/A   Mostly Cloudy
3:55 PM 64.4 °F - 43.9 °F 47% 29.98 in 10.0 mi SE 17.3 mph 20.7 mph N/A   Mostly Cloudy
4:15 PM 63.5 °F - 43.2 °F 47% 29.97 in 10.0 mi SSE 17.3 mph 21.9 mph N/A   Overcast
4:35 PM 62.8 °F - 43.5 °F 49% 29.97 in 10.0 mi SE 17.3 mph - N/A   Overcast
4:55 PM 62.8 °F - 43.3 °F 49% 29.96 in 10.0 mi SE 16.1 mph - N/A   Overcast
5:15 PM 62.8 °F - 43.9 °F 50% 29.95 in 10.0 mi SE 12.7 mph 16.1 mph N/A   Overcast
5:35 PM 63.1 °F - 43.9 °F 49% 29.94 in 10.0 mi SE 12.7 mph - N/A   Mostly Cloudy
5:55 PM 63.1 °F - 43.7 °F 49% 29.94 in 10.0 mi SE 12.7 mph - N/A   Scattered Clouds
6:15 PM 62.8 °F - 41.7 °F 46% 29.94 in 10.0 mi SSE 15.0 mph - N/A   Mostly Cloudy
6:35 PM 61.9 °F - 43.0 °F 50% 29.94 in 10.0 mi South 10.4 mph - N/A Rain Light Rain
6:55 PM 59.0 °F - 45.1 °F 60% 29.97 in 10.0 mi SSW 19.6 mph 25.3 mph N/A Rain Rain
7:15 PM 54.5 °F - 48.0 °F 79% 29.98 in 7.0 mi SW 24.2 mph 29.9 mph 0.01 in Rain Rain
7:35 PM 53.8 °F - 48.0 °F 81% 29.98 in 10.0 mi SSW 8.1 mph - 0.01 in Rain Light Rain
7:55 PM 53.2 °F - 48.2 °F 83% 29.99 in 10.0 mi West 10.4 mph - 0.01 in   Light Drizzle
8:15 PM 52.7 °F - 48.4 °F 85% 30.00 in 10.0 mi WSW 8.1 mph - N/A   Light Drizzle
8:35 PM 52.3 °F - 48.4 °F 86% 30.01 in 10.0 mi WSW 9.2 mph - 0.01 in   Light Drizzle
8:55 PM 51.8 °F - 48.6 °F 89% 30.03 in 7.0 mi SW 6.9 mph - 0.02 in Rain Rain
9:15 PM 51.1 °F - 48.7 °F 92% 30.03 in 7.0 mi WSW 5.8 mph - 0.02 in Rain Light Rain
9:35 PM 51.3 °F - 48.7 °F 91% 30.04 in 10.0 mi SW 6.9 mph - 0.02 in Rain Rain
9:55 PM 50.9 °F - 48.7 °F 92% 30.04 in 7.0 mi SW 6.9 mph - 0.03 in Rain Rain
10:15 PM 50.9 °F - 48.7 °F 92% 30.04 in 7.0 mi SW 8.1 mph - 0.01 in   Drizzle
10:35 PM 50.5 °F - 48.7 °F 94% 30.03 in 10.0 mi WSW 10.4 mph - 0.01 in   Light Drizzle
10:55 PM 50.2 °F - 48.4 °F 94% 30.01 in 10.0 mi West 11.5 mph - 0.01 in   Overcast
11:15 PM 47.5 °F - 45.5 °F 93% 30.03 in 10.0 mi WNW 12.7 mph - N/A Rain Light Rain
11:35 PM 44.8 °F 38.7 °F 43.2 °F 94% 30.03 in 10.0 mi WNW 12.7 mph - N/A   Light Drizzle
11:55 PM 43.3 °F 36.1 °F 41.9 °F 95% 30.02 in 10.0 mi WNW 15.0 mph - N/A   Light Drizzle